Regional Weather Roundup
Issued by NWS

Home | Current Version | Previous Version | Graphics & Text | Print | Product List | Glossary On
Versions: 1 2 3 4 5 6 7 8 9 10 11 12 13 14 15 16 17 18 19 20 21 22 23 24 25 26 27 28 29 30 31 32 33 34 35 36 37 38 39 40 41 42 43 44 45 46 47 48 49 50
000
ASUS44 KMEG 200100
RWRTN
TENNESSEE HOURLY STATE WEATHER ROUNDUP
NATIONAL WEATHER SERVICE MEMPHIS TN
700 PM CST THU JAN 19 2017

TNZ002-004-019-021-049-052-054-088>092-200200-
WEST TENNESSEE

CITY           SKY/WX    TMP DP  RH WIND       PRES   REMARKS
MEMPHIS INTL   LGT RAIN  60  59  96 S7G20     29.69F
NWS MEMPHIS      N/A     59 N/A N/A MISG        N/A
JACKSON        LGT RAIN  60  60 100 S7        29.73S
DYERSBURG      CLOUDY    61  57  88 S13       29.69F
UNION CITY     CLEAR    N/A N/A N/A CALM      29.69F
PARIS          MOCLDY    55  55 100 CALM      29.72F
$$

TNZ008-025-027-028-033-062-065-066-200200-
NORTH MIDDLE TENNESSEE

CITY           SKY/WX    TMP DP  RH WIND       PRES   REMARKS
NASHVILLE      LGT RAIN  60  58  92 SE9       29.73F FOG
CLARKSVILLE    LGT RAIN  55  54  96 SE6       29.74F FOG
SMYRNA         LGT RAIN  59  58  96 SE8       29.74F
CROSSVILLE     RAIN      50  46  86 SE6       29.85F FOG
$$

TNZ061-075-076-078-094-096-097-200200-
SOUTH MIDDLE TENNESSEE

CITY           SKY/WX    TMP DP  RH WIND       PRES   REMARKS
TULLAHOMA      MOCLDY    57  57 100 SE10      29.78F
WINCHESTER     CLOUDY    59  57  94 SE9       29.80F
MCMINNVILLE    CLOUDY    59  59 100 CALM      29.80F
COLUMBIA       MOCLDY   N/A N/A N/A CALM      29.72F
SHELBYVILLE    CLOUDY    61  61 100 SE14      29.74F
$$

TNZ017-018-042-046-047-200200-
NORTHEAST TENNESSEE

CITY           SKY/WX    TMP DP  RH WIND       PRES   REMARKS
TRI CITIES     CLOUDY    55  41  59 CALM      29.91F
$$

TNZ012-013-036-069-073-074-200200-
CENTRAL EAST TENNESSEE

CITY           SKY/WX    TMP DP  RH WIND       PRES   REMARKS
KNOXVILLE      CLOUDY    55  45  68 NE9       29.84F
OAK RIDGE      CLOUDY    54  45  71 NE5       29.87F
GATLINBURG     CLOUDY    52  46  82 CALM      29.86F
$$

TNZ083-085-099-200200-
SOUTHEAST TENNESSEE

CITY           SKY/WX    TMP DP  RH WIND       PRES   REMARKS
CHATTANOOGA    LGT RAIN  53  50  89 NW3       29.85F FOG
$$

SKY/WX REPORTED AS FAIR MEANS FEW OR NO CLOUDS BELOW
12 THOUSAND FEET.





USA.gov is the U.S. government's official web portal to all federal, state and local government web resources and services.